• în Republica Moldova
  • Lista ţărilor
  • Pe 7 zile
  • Temperatura apei
  • Hartă satelitară
  • Meteo pe hartă
  • Widget-uri
  • user-avatar
    Intrare

    Meteo pe oră la Shaki

    Astăzi, 26 Mai, Sâmbătă

    Timp Temperatura Precipitaţii Vânt Presiune Umiditate
    00:00 +23°C° 0 mm 2 m/s 731 mmHg 42%
    01:00 +21°C° 0 mm 2 m/s 731 mmHg 42%
    02:00 +21°C° 0 mm 2 m/s 731 mmHg 42%
    03:00 +23°C° 0 mm 2 m/s 731 mmHg 43%
    04:00 +23°C° 0 mm 2 m/s 731 mmHg 43%
    05:00 +24°C° 0 mm 2 m/s 731 mmHg 43%
    06:00 +25°C° 0 mm 2 m/s 731 mmHg 44%
    07:00 +26°C° 0 mm 2 m/s 731 mmHg 39%
    08:00 +28°C° 0 mm 2 m/s 731 mmHg 35%
    09:00 +30°C° 0 mm 3 m/s 731 mmHg 30%
    10:00 +30°C° 0,2 mm 3 m/s 732 mmHg 30%
    11:00 +31°C° 0,2 mm 2 m/s 732 mmHg 29%
    12:00 +32°C° 0,2 mm 2 m/s 732 mmHg 29%
    13:00 +32°C° 0,2 mm 2 m/s 732 mmHg 29%
    14:00 +32°C° 0,2 mm 2 m/s 732 mmHg 29%
    15:00 +32°C° 0,2 mm 2 m/s 732 mmHg 29%
    16:00 +31°C° 0,1 mm 2 m/s 732 mmHg 31%
    17:00 +30°C° 0,1 mm 2 m/s 733 mmHg 34%
    18:00 +29°C° 0,1 mm 2 m/s 733 mmHg 37%
    19:00 +28°C° 0,5 mm 2 m/s 734 mmHg 41%
    20:00 +26°C° 0,5 mm 2 m/s 734 mmHg 46%
    21:00 +24°C° 0,5 mm 2 m/s 735 mmHg 51%
    22:00 +23°C° 0,3 mm 2 m/s 735 mmHg 55%
    23:00 +23°C° 0,3 mm 2 m/s 736 mmHg 60%

    Mâine, 27 Mai, Duminică

    Timp Temperatura Precipitaţii Vânt Presiune Umiditate
    00:00 +21°C° 0,3 mm 2 m/s 736 mmHg 64%
    01:00 +21°C° 0,1 mm 2 m/s 737 mmHg 68%
    02:00 +21°C° 0,1 mm 2 m/s 737 mmHg 72%
    03:00 +20°C° 0,1 mm 2 m/s 737 mmHg 76%
    04:00 +20°C° 0,1 mm 2 m/s 737 mmHg 77%
    05:00 +20°C° 0,1 mm 2 m/s 738 mmHg 79%
    06:00 +21°C° 0,1 mm 3 m/s 738 mmHg 80%
    07:00 +21°C° 0 mm 3 m/s 739 mmHg 76%
    08:00 +22°C° 0 mm 4 m/s 739 mmHg 71%
    09:00 +23°C° 0 mm 5 m/s 740 mmHg 67%
    10:00 +23°C° 0 mm 5 m/s 740 mmHg 64%
    11:00 +23°C° 0 mm 5 m/s 740 mmHg 61%
    12:00 +23°C° 0 mm 5 m/s 740 mmHg 58%
    13:00 +25°C° 0 mm 5 m/s 740 mmHg 57%
    14:00 +24°C° 0 mm 6 m/s 740 mmHg 56%
    15:00 +24°C° 0 mm 6 m/s 740 mmHg 55%
    16:00 +23°C° 0 mm 6 m/s 740 mmHg 58%
    17:00 +23°C° 0 mm 6 m/s 740 mmHg 60%
    18:00 +22°C° 0 mm 6 m/s 740 mmHg 63%
    19:00 +20°C° 0 mm 5 m/s 741 mmHg 66%
    20:00 +19°C° 0 mm 5 m/s 741 mmHg 69%
    21:00 +18°C° 0 mm 4 m/s 741 mmHg 72%
    22:00 +17°C° 0 mm 3 m/s 741 mmHg 72%
    23:00 +17°C° 0 mm 3 m/s 741 mmHg 73%

    Poimâine, 28 Mai, Luni

    Timp Temperatura Precipitaţii Vânt Presiune Umiditate
    00:00 +16°C° 0 mm 2 m/s 741 mmHg 73%
    01:00 +16°C° 0 mm 2 m/s 740 mmHg 73%
    02:00 +16°C° 0 mm 2 m/s 740 mmHg 73%
    03:00 +15°C° 0 mm 1 m/s 739 mmHg 73%
    04:00 +16°C° 0 mm 1 m/s 739 mmHg 68%
    05:00 +18°C° 0 mm 1 m/s 739 mmHg 64%
    06:00 +18°C° 0 mm 2 m/s 739 mmHg 59%
    07:00 +20°C° 0 mm 2 m/s 738 mmHg 54%
    08:00 +23°C° 0 mm 2 m/s 738 mmHg 50%
    09:00 +25°C° 0 mm 2 m/s 737 mmHg 45%
    10:00 +26°C° 0 mm 2 m/s 737 mmHg 43%
    11:00 +27°C° 0 mm 2 m/s 736 mmHg 41%
    12:00 +29°C° 0 mm 2 m/s 736 mmHg 39%
    13:00 +29°C° 0,1 mm 2 m/s 735 mmHg 39%
    14:00 +30°C° 0,1 mm 2 m/s 735 mmHg 39%
    15:00 +30°C° 0,1 mm 2 m/s 735 mmHg 39%
    16:00 +29°C° 0,1 mm 2 m/s 735 mmHg 42%
    17:00 +28°C° 0,1 mm 2 m/s 735 mmHg 45%
    18:00 +28°C° 0,1 mm 2 m/s 735 mmHg 48%
    19:00 +26°C° 0,1 mm 2 m/s 735 mmHg 50%
    20:00 +25°C° 0,1 mm 2 m/s 735 mmHg 52%
    21:00 +24°C° 0,1 mm 2 m/s 736 mmHg 55%
    22:00 +23°C° 0 mm 2 m/s 736 mmHg 57%
    23:00 +23°C° 0 mm 2 m/s 736 mmHg 59%

    29 Mai, Marţi

    Timp Temperatura Precipitaţii Vânt Presiune Umiditate
    00:00 +22°C° 0 mm 1 m/s 736 mmHg 60%
    01:00 +22°C° 0 mm 1 m/s 736 mmHg 62%
    02:00 +22°C° 0 mm 1 m/s 736 mmHg 64%
    03:00 +21°C° 0 mm 1 m/s 736 mmHg 65%
    04:00 +22°C° 0 mm 1 m/s 736 mmHg 65%
    05:00 +22°C° 0 mm 1 m/s 736 mmHg 65%
    06:00 +23°C° 0 mm 2 m/s 737 mmHg 64%
    07:00 +24°C° 0 mm 2 m/s 737 mmHg 60%
    08:00 +25°C° 0 mm 3 m/s 737 mmHg 55%
    09:00 +27°C° 0 mm 4 m/s 737 mmHg 50%
    10:00 +27°C° 0 mm 4 m/s 737 mmHg 48%
    11:00 +28°C° 0 mm 5 m/s 737 mmHg 47%
    12:00 +29°C° 0 mm 5 m/s 737 mmHg 45%
    13:00 +29°C° 0 mm 5 m/s 737 mmHg 45%
    14:00 +29°C° 0 mm 6 m/s 737 mmHg 45%
    15:00 +29°C° 0 mm 6 m/s 737 mmHg 45%
    16:00 +27°C° 0,1 mm 6 m/s 737 mmHg 51%
    17:00 +26°C° 0,1 mm 6 m/s 737 mmHg 56%
    18:00 +23°C° 0,1 mm 6 m/s 737 mmHg 62%
    19:00 +22°C° 0,2 mm 6 m/s 737 mmHg 64%
    20:00 +21°C° 0,2 mm 5 m/s 738 mmHg 66%
    21:00 +20°C° 0,2 mm 5 m/s 739 mmHg 68%
    22:00 +20°C° 0,2 mm 4 m/s 738 mmHg 71%
    23:00 +19°C° 0,2 mm 4 m/s 738 mmHg 73%

    30 Mai, Miercuri

    Timp Temperatura Precipitaţii Vânt Presiune Umiditate
    00:00 +19°C° 0,2 mm 3 m/s 738 mmHg 75%
    01:00 +18°C° 0,2 mm 3 m/s 738 mmHg 77%
    02:00 +18°C° 0,2 mm 3 m/s 738 mmHg 80%
    03:00 +17°C° 0,2 mm 3 m/s 738 mmHg 82%
    04:00 +17°C° 0,1 mm 3 m/s 738 mmHg 81%
    05:00 +17°C° 0,1 mm 3 m/s 738 mmHg 81%
    06:00 +17°C° 0,1 mm 3 m/s 738 mmHg 80%
    07:00 +19°C° 0 mm 3 m/s 738 mmHg 74%
    08:00 +20°C° 0 mm 3 m/s 738 mmHg 68%
    09:00 +21°C° 0 mm 4 m/s 738 mmHg 62%
    10:00 +22°C° 0 mm 4 m/s 738 mmHg 57%
    11:00 +23°C° 0 mm 4 m/s 737 mmHg 52%
    12:00 +25°C° 0 mm 3 m/s 737 mmHg 47%
    13:00 +26°C° 0 mm 3 m/s 737 mmHg 45%
    14:00 +26°C° 0 mm 3 m/s 736 mmHg 43%
    15:00 +27°C° 0 mm 3 m/s 736 mmHg 41%
    16:00 +26°C° 0 mm 3 m/s 735 mmHg 42%
    17:00 +26°C° 0 mm 3 m/s 735 mmHg 43%
    18:00 +26°C° 0 mm 3 m/s 735 mmHg 45%
    19:00 +24°C° 0 mm 3 m/s 735 mmHg 47%
    20:00 +22°C° 0 mm 3 m/s 735 mmHg 50%
    21:00 +20°C° 0 mm 3 m/s 735 mmHg 52%
    22:00 +20°C° 0 mm 3 m/s 734 mmHg 52%
    23:00 +19°C° 0 mm 3 m/s 734 mmHg 52%

    31 Mai, Joi

    Timp Temperatura Precipitaţii Vânt Presiune Umiditate
    00:00 +19°C° 0 mm 3 m/s 734 mmHg 51%
    01:00 +18°C° 0 mm 2 m/s 733 mmHg 51%
    02:00 +18°C° 0 mm 2 m/s 732 mmHg 50%
    03:00 +19°C° 0 mm 1 m/s 732 mmHg 49%
    04:00 +20°C° 0 mm 1 m/s 731 mmHg 49%
    05:00 +20°C° 0 mm 2 m/s 731 mmHg 48%
    06:00 +21°C° 0 mm 2 m/s 731 mmHg 48%
    07:00 +24°C° 0 mm 2 m/s 731 mmHg 44%
    08:00 +25°C° 0 mm 3 m/s 730 mmHg 39%
    09:00 +27°C° 0 mm 3 m/s 730 mmHg 35%
    10:00 +29°C° 0 mm 3 m/s 730 mmHg 33%
    11:00 +30°C° 0 mm 3 m/s 729 mmHg 30%
    12:00 +31°C° 0 mm 3 m/s 729 mmHg 28%
    13:00 +33°C° 0 mm 3 m/s 728 mmHg 27%
    14:00 +33°C° 0 mm 3 m/s 728 mmHg 26%
    15:00 +34°C° 0 mm 3 m/s 728 mmHg 26%
    16:00 +32°C° 0,1 mm 2 m/s 728 mmHg 28%
    17:00 +31°C° 0,1 mm 2 m/s 728 mmHg 30%
    18:00 +30°C° 0,1 mm 2 m/s 728 mmHg 33%
    19:00 +28°C° 0,4 mm 2 m/s 728 mmHg 37%
    20:00 +26°C° 0,4 mm 1 m/s 729 mmHg 40%
    21:00 +24°C° 0,4 mm 1 m/s 729 mmHg 44%
    22:00 +24°C° 0,5 mm 1 m/s 729 mmHg 45%
    23:00 +23°C° 0,5 mm 2 m/s 729 mmHg 46%
    Arată mai mult